カタログに戻る

PEGASUS R/B(2)

運用中LEO
NORAD 25484·ROCKET BODY·🇺🇸 United States

打ち上げ Sep 23, 1998 から Cape Canaveral Space Force Station

Loading…

次のパス (今後24時間)

TLE

最新Source: Space-Track

元期: Sep 14, 2026, 15:03 UTC

1 25484U 98053K   26257.62720814  .00000038  00000-0  51994-4 0  9993
2 25484  44.5293 118.6767 0063250 238.3916 149.5578 14.43556855473500

AllMySatでPEGASUS R/B(2)をリアルタイム追跡

Download on the App Store